Location: Newark
(54.0500°N, 12.8333°E)
Time: 19:43:29
(UTC+00:00)

Transit 2A Rocket - All Passes

Search period start: 21 January 2020 00:00
Search period end: 31 January 2020 00:00
Orbit: 593 x 910 km, 66.7° (Epoch: 21 January)

Date Brightness Start Highest point End Pass type
(mag) Time Alt. Az. Time Alt. Az. Time Alt. Az.
21 Jan - 05:19:39 10° S 05:23:34 35° ESE 05:27:33 10° NE visible
21 Jan - 07:01:53 10° WSW 07:06:02 45° NW 07:10:19 10° NE daylight
21 Jan - 08:46:29 10° WNW 08:49:39 19° NNW 08:52:54 10° NNE daylight
21 Jan - 10:30:38 10° NNW 10:33:49 18° NNE 10:37:07 10° ENE daylight
21 Jan - 12:13:11 10° NW 12:17:31 39° NE 12:22:11 10° ESE daylight
21 Jan - 13:55:40 10° NW 14:00:15 53° WSW 14:05:14 10° SSE daylight
22 Jan - 04:37:58 10° SSE 04:41:16 22° ESE 04:44:37 10° ENE visible
22 Jan - 06:19:05 10° SW 06:23:23 67° NW 06:27:47 10° NE visible
22 Jan - 08:03:16 10° WNW 08:06:43 22° NNW 08:10:16 10° NNE daylight
22 Jan - 09:47:51 10° NW 09:50:49 17° N 09:53:54 10° NE daylight
22 Jan - 11:30:42 10° NNW 11:34:45 30° NNE 11:39:04 10° E daylight
22 Jan - 13:13:03 10° NW 13:17:45 81° SW 13:22:52 10° SE daylight
22 Jan - 14:56:41 10° WNW 14:59:44 17° WSW 15:02:55 10° SSW daylight
23 Jan - 03:57:01 10° SE 03:59:04 13° ESE 04:01:07 10° E visible
23 Jan - 05:36:31 10° SW 05:40:49 79° SE 05:45:14 10° NE visible
23 Jan - 07:20:06 10° W 07:23:50 27° NNW 07:27:43 10° NNE daylight
23 Jan - 09:04:53 10° NW 09:07:49 17° N 09:10:51 10° NE daylight
23 Jan - 10:48:10 10° NNW 10:51:54 24° NNE 10:55:49 10° ENE daylight
23 Jan - 12:30:31 10° NW 12:35:11 69° NE 12:40:16 10° SE daylight
23 Jan - 14:13:29 10° WNW 14:17:27 26° WSW 14:21:40 10° S daylight
24 Jan - 04:54:13 10° SSW 04:58:21 48° ESE 05:02:35 10° NE visible
24 Jan - 06:37:02 10° WSW 06:41:02 36° NW 06:45:12 10° NNE daylight
24 Jan - 08:21:47 10° NW 08:24:50 18° N 08:27:58 10° NE daylight
24 Jan - 10:05:35 10° NNW 10:08:59 20° NNE 10:12:32 10° ENE daylight
24 Jan - 11:48:01 10° NW 11:52:32 48° NE 11:57:25 10° ESE daylight
24 Jan - 13:30:38 10° NW 13:35:05 40° WSW 13:39:53 10° S daylight
25 Jan - 04:12:15 10° S 04:15:59 30° ESE 04:19:48 10° ENE visible
25 Jan - 05:54:07 10° WSW 05:58:19 51° NW 06:02:41 10° NE visible
25 Jan - 07:38:35 10° WNW 07:41:51 20° NNW 07:45:14 10° NNE daylight
25 Jan - 09:22:53 10° NW 09:26:00 18° N 09:29:16 10° NE daylight
25 Jan - 11:05:32 10° NNW 11:09:49 35° NE 11:14:24 10° E daylight
25 Jan - 12:47:57 10° NW 12:52:38 62° SW 12:57:44 10° SSE daylight
25 Jan - 14:32:28 10° W 14:34:24 12° WSW 14:36:25 10° SW daylight
26 Jan - 03:30:44 10° SSE 03:33:43 18° ESE 03:36:44 10° ENE visible
26 Jan - 05:11:23 10° SW 05:15:42 78° NW 05:20:09 10° NE visible
26 Jan - 06:55:22 10° WNW 06:58:56 24° NNW 07:02:38 10° NNE daylight
26 Jan - 08:40:02 10° NW 08:43:01 17° N 08:46:06 10° NE daylight
26 Jan - 10:23:02 10° NNW 10:27:00 27° NNE 10:31:14 10° E daylight
26 Jan - 12:05:23 10° NW 12:10:06 89° NE 12:15:17 10° SE daylight
26 Jan - 13:48:43 10° WNW 13:52:11 20° WSW 13:55:52 10° SSW daylight
27 Jan - 02:50:24 10° ESE 02:51:33 11° ESE 02:52:42 10° E visible
27 Jan - 04:28:54 10° SSW 04:33:10 67° SE 04:37:33 10° NE visible
27 Jan - 06:12:14 10° W 06:16:05 30° NNW 06:20:05 10° NNE visible
27 Jan - 07:57:02 10° NW 08:00:01 17° N 08:03:06 10° NE daylight
27 Jan - 09:40:29 10° NNW 09:44:07 22° NNE 09:47:58 10° ENE daylight
27 Jan - 11:22:51 10° NW 11:27:30 61° NE 11:32:35 10° SE daylight
27 Jan - 13:05:41 10° WNW 13:09:53 30° WSW 13:14:24 10° S daylight
28 Jan - 03:46:42 10° S 03:50:44 41° ESE 03:54:53 10° NE visible
28 Jan - 05:29:13 10° WSW 05:33:18 41° NW 05:37:34 10° NE visible
28 Jan - 07:13:53 10° WNW 07:17:01 19° NNW 07:20:16 10° NNE daylight
28 Jan - 08:57:52 10° NNW 09:01:11 19° NNE 09:04:40 10° ENE daylight
28 Jan - 10:40:22 10° NW 10:44:50 43° NE 10:49:41 10° ESE daylight
28 Jan - 12:22:54 10° NW 12:27:29 47° WSW 12:32:27 10° SSE daylight
29 Jan - 03:04:52 10° S 03:08:24 25° ESE 03:12:01 10° ENE visible
29 Jan - 04:46:21 10° SW 04:50:37 59° NW 04:55:03 10° NE visible
29 Jan - 06:30:40 10° WNW 06:34:03 21° NNW 06:37:35 10° NNE daylight
29 Jan - 08:15:07 10° NW 08:18:12 18° N 08:21:26 10° NE daylight
29 Jan - 09:57:52 10° NNW 10:02:05 32° NNE 10:06:35 10° E daylight
29 Jan - 11:40:16 10° NW 11:45:00 72° SW 11:50:12 10° SSE daylight
29 Jan - 13:24:11 10° WNW 13:26:54 15° WSW 13:29:43 10° SW daylight
30 Jan - 02:23:37 10° SSE 02:26:10 16° ESE 02:28:46 10° ENE visible
30 Jan - 04:03:43 10° SW 04:08:01 90° SW 04:12:30 10° NE visible
30 Jan - 05:47:29 10° W 05:51:09 26° NNW 05:55:00 10° NNE visible
30 Jan - 07:32:12 10° NW 07:35:12 17° N 07:38:19 10° NE daylight
30 Jan - 09:15:21 10° NNW 09:19:15 26° NNE 09:23:23 10° E daylight
30 Jan - 10:57:42 10° NW 11:02:27 78° NE 11:07:40 10° SE daylight
30 Jan - 12:40:49 10° WNW 12:44:38 23° WSW 12:48:43 10° SSW daylight
